This demonstration page uses our WeatherBlox Daily Observations layout. Learn more.

40.92945, -100.16068

Hourly Observations for August 20, 2016

Temp ( °F °C ) Dew Point ( °F °C ) Humidity (%) Winds ( mph kmh ) Pressure ( in mb ) Visibility ( mi km ) Precip ( " mm )
12:15 am 00:15 Cloudy 61 16.1 55 12.6 80 80 N 15 24 30 1016 10 16.09344 0 0
12:35 am 00:35 Cloudy 61 16 55 12.5 80 80 NNW 10 17 30 1016 10 16.09344 0 0
12:55 am 00:55 Cloudy 60 15.8 55 12.6 81 81 NNW 16 26 30 1016 10 16.09344 0 0
1:15 am 01:15 Cloudy 60 15.8 55 12.5 81 81 NNW 12 19 30 1016 10 16.09344 0 0
1:35 am 01:35 Cloudy 60 15.6 54 12.3 81 81 N 12 19 30 1016 10 16.09344 0 0
1:55 am 01:55 Cloudy 60 15.5 53 11.6 78 78 NNW 10 17 30 1016 10 16.09344 0 0
2:15 am 02:15 Cloudy 60 15.3 53 11.7 79 79 NNW 9 15 30 1016 10 16.09344 0 0
2:35 am 02:35 Cloudy 59 15.2 53 11.7 80 80 NNW 9 15 30 1016 10 16.09344 0 0
2:55 am 02:55 Cloudy 59 15 53 11.5 80 80 NNW 8 13 30 1016 10 16.09344 0 0
3:15 am 03:15 Cloudy 59 15 53 11.6 80 80 NNW 10 17 30 1016 10 16.09344 0 0
3:35 am 03:35 Cloudy 59 15 51 10.8 76 76 NNW 12 19 30 1016 10 16.09344 0 0
3:55 am 03:55 Mostly Cloudy 58 14.3 52 10.9 80 80 NNW 12 19 30 1016 10 16.09344 0 0
4:15 am 04:15 Mostly Cloudy 56 13.5 52 11 85 85 NNW 8 13 30.06 1018 10 16.09344 0 0
4:35 am 04:35 Mostly Cloudy 56 13.6 51 10.6 82 82 NW 9 15 30.06 1018 10 16.09344 0 0
4:55 am 04:55 Partly Cloudy 55 12.7 51 10.5 87 87 NW 8 13 30.03 1017 10 16.09344 0 0
5:15 am 05:15 Clear 54 12.1 51 10.3 89 89 NW 8 13 30.03 1017 10 16.09344 0 0
5:35 am 05:35 Clear 53 11.9 51 10.5 91 91 WNW 9 15 30.03 1017 10 16.09344 0 0
5:55 am 05:55 Clear 53 11.6 50 10.2 91 91 WNW 8 13 30.03 1017 10 16.09344 0 0
6:15 am 06:15 Clear 53 11.5 50 10.1 91 91 WNW 9 15 30.03 1017 10 16.09344 0 0
6:35 am 06:35 Clear 52 11.2 50 10 92 92 NW 9 15 30.03 1017 10 16.09344 0 0
6:55 am 06:55 Sunny 52 11 50 9.8 92 92 WNW 8 13 30.03 1017 10 16.09344 0 0
7:15 am 07:15 Sunny 52 10.9 49 9.7 92 92 WNW 8 13 30.06 1018 10 16.09344 0 0
7:35 am 07:35 Sunny 52 11 50 9.8 92 92 WNW 8 13 30.06 1018 10 16.09344 0 0
7:55 am 07:55 Sunny 53 11.4 50 10 91 91 NW 9 15 30.06 1018 10 16.09344 0 0
8:15 am 08:15 Sunny 53 11.9 50 10 88 88 NW 10 17 30.06 1018 10 16.09344 0 0
8:35 am 08:35 Sunny 55 12.6 50 10 84 84 NW 9 15 30.06 1018 10 16.09344 0 0
8:55 am 08:55 Sunny 56 13.2 50 10.1 82 82 NW 13 20 30.06 1018 10 16.09344 0 0
9:15 am 09:15 Sunny 57 13.7 50 10.2 80 80 NNW 9 15 30 1016 10 16.09344 0 0
9:35 am 09:35 Sunny 58 14.7 51 10.7 77 77 NNW 12 19 30 1016 10 16.09344 0 0
9:55 am 09:55 Sunny 60 15.6 51 10.6 72 72 NNW 13 20 30 1016 10 16.09344 0 0
10:15 am 10:15 Sunny 62 16.8 51 10.3 66 66 NNW 15 24 29.97 1015 10 16.09344 0 0
10:35 am 10:35 Sunny 63 17.3 49 9.3 60 60 NNW 15 24 29.97 1015 10 16.09344 0 0
10:55 am 10:55 Sunny 65 18.1 49 9.6 58 58 NNW 15 24 29.97 1015 10 16.09344 0 0
11:15 am 11:15 Sunny 65 18.5 49 9.2 55 55 NNW 16 26 29.97 1015 10 16.09344 0 0
11:35 am 11:35 Sunny 67 19.2 48 9 52 52 NNW 13 20 29.97 1015 10 16.09344 0 0
11:55 am 11:55 Sunny 67 19.5 48 8.9 51 51 NNW 13 20 29.97 1015 10 16.09344 0 0
12:15 pm 12:15 Sunny 68 20.1 48 9 49 49 NNW 15 24 29.97 1015 10 16.09344 0 0
12:35 pm 12:35 Sunny 69 20.4 49 9.2 49 49 N 8 13 29.94 1014 10 16.09344 0 0
12:55 pm 12:55 Sunny 69 20.8 47 8.6 46 46 NNW 12 19 29.94 1014 10 16.09344 0 0
1:15 pm 13:15 Partly Cloudy 71 21.5 48 8.9 45 45 NW 16 26 29.94 1014 10 16.09344 0 0
1:35 pm 13:35 Sunny 71 21.6 47 8.5 43 43 NNW 12 19 29.94 1014 10 16.09344 0 0
1:55 pm 13:55 Partly Cloudy 72 22 47 8.6 42 42 NNW 13 20 29.94 1014 10 16.09344 0 0
2:15 pm 14:15 Partly Cloudy 72 22.2 47 8.5 42 42 N 10 17 29.94 1014 10 16.09344 0 0
2:35 pm 14:35 Partly Cloudy 73 22.5 46 7.9 39 39 NW 7 11 29.94 1014 10 16.09344 0 0
2:55 pm 14:55 Partly Cloudy 72 22 46 7.8 40 40 NNW 8 13 29.94 1014 10 16.09344 0 0
3:15 pm 15:15 Partly Cloudy 72 22.3 47 8.1 40 40 NW 7 11 29.94 1014 10 16.09344 0 0
3:35 pm 15:35 Partly Cloudy 73 22.5 45 7.3 38 38 NNW 7 11 29.91 1013 10 16.09344 0 0
3:55 pm 15:55 Partly Cloudy 73 22.7 45 7.1 37 37 NNW 7 11 29.91 1013 10 16.09344 0 0
4:15 pm 16:15 Partly Cloudy 74 23.4 44 6.9 35 35 NW 13 20 29.88 1012 10 16.09344 0 0
4:35 pm 16:35 Sunny 74 23.2 45 7.4 36 36 NW 13 20 29.91 1013 10 16.09344 0 0
4:55 pm 16:55 Partly Cloudy 74 23.5 45 7.1 35 35 WNW 10 17 29.88 1012 10 16.09344 0 0
5:15 pm 17:15 Sunny 74 23.1 45 7.1 36 36 NW 8 13 29.91 1013 10 16.09344 0 0
5:35 pm 17:35 Partly Cloudy 74 23.3 46 7.8 37 37 NNW 9 15 29.91 1013 10 16.09344 0 0
5:55 pm 17:55 Partly Cloudy 74 23.2 45 7 35 35 NW 7 11 29.91 1013 10 16.09344 0 0
6:15 pm 18:15 Sunny 74 23.1 46 7.7 37 37 NW 8 13 29.91 1013 10 16.09344 0 0
6:35 pm 18:35 Sunny 73 22.5 47 8.3 40 40 NW 8 13 29.91 1013 10 16.09344 0 0
6:55 pm 18:55 Sunny 72 22.3 48 9 43 43 NW 6 9 29.91 1013 10 16.09344 0 0
7:15 pm 19:15 Sunny 71 21.7 49 9.6 46 46 NW 5 7 29.91 1013 10 16.09344 0 0
7:35 pm 19:35 Sunny 69 20.7 51 10.8 53 53 NW 3 6 29.91 1013 10 16.09344 0 0
7:55 pm 19:55 Sunny 67 19.5 53 11.7 61 61 NW 5 7 29.94 1014 10 16.09344 0 0
8:15 pm 20:15 Sunny 66 18.9 54 12.1 65 65 NNW 3 6 29.97 1015 10 16.09344 0 0
8:35 pm 20:35 Clear 61 16.3 56 13.1 81 81 N 5 7 30 1016 10 16.09344 0 0
8:55 pm 20:55 Clear 61 16.2 55 12.6 79 79 N 5 7 30 1016 10 16.09344 0 0
9:15 pm 21:15 Clear 60 15.5 54 12 80 80 N 3 6 30 1016 10 16.09344 0 0
9:35 pm 21:35 Clear 57 14.1 53 11.7 86 86 Calm 30 1016 10 16.09344 0 0
9:55 pm 21:55 Clear 58 14.6 52 11.3 81 81 Calm 30 1016 10 16.09344 0 0
10:15 pm 22:15 Clear 56 13.4 52 11.1 86 86 Calm 30.03 1017 10 16.09344 0 0
10:35 pm 22:35 Clear 56 13.3 52 11.1 87 87 Calm 30.03 1017 10 16.09344 0 0
10:55 pm 22:55 Clear 57 13.7 51 10.7 82 82 Calm 30 1016 10 16.09344 0 0
11:15 pm 23:15 Clear 55 12.7 51 10.4 86 86 Calm 30.03 1017 10 16.09344 0 0
11:35 pm 23:35 Clear 54 12.4 49 9.6 83 83 WSW 5 7 30.03 1017 10 16.09344 0 0
11:55 pm 23:55 Clear 53 11.9 49 9.7 87 87 W 5 7 30.03 1017 10 16.09344 0 0

Powered by AerisWeather